Wind_Speed
22 20 18 17 15 14 20 16 17 18 17 16 15 14 13 12 12 11 11 11 11 9 9 10 11 10 9 8 7 6 6 7 7 8 9 10 10 10 7 8 7 6 6
17 20 23 15 16 15 13 15 16 17 17 18 17 16 16 15 13 12 12 11 11 10 10 10 10 12 12 10 10 10 9 8 8 9 10 10 10 10 10 9 9 8 8
16 16 16 18 17 18 16 17 17 18 18 19 19 19 18 17 16 14 13 12 11 10 11 12 13 13 14 13 12 12 12 11 10 10 11 11 12 13 12 13 14 8 6
19 19 19 19 19 18 19 18 19 19 18 19 19 19 17 17 16 15 16 15 14 13 14 13 13 14 15 15 15 14 15 14 13 12 11 11 14 13 14 13 10 6 4
20 21 20 19 19 19 20 21 20 20 18 18 19 18 18 18 17 17 16 16 16 18 18 16 16 15 16 17 17 16 17 17 16 16 17 14 16 15 14 12 11 13 10
21 22 23 22 20 20 22 25 25 23 22 20 19 19 19 20 19 18 17 16 16 17 18 19 19 20 19 19 17 18 20 19 19 18 17 18 17 16 15 14 11 11 11
20 23 23 24 24 23 23 21 28 28 25 23 22 22 21 20 19 19 19 20 19 18 18 19 21 21 20 20 20 21 21 21 21 20 20 19 19 18 18 16 14 14 17
15 18 21 24 25 23 21 18 22 29 28 27 26 24 23 21 21 21 21 21 21 21 21 23 22 22 22 21 21 22 23 22 23 22 22 21 21 21 20 18 17 15 13
16 16 17 18 23 23 21 21 21 23 27 30 30 28 26 26 25 25 26 27 26 25 26 26 26 26 25 26 26 25 25 25 24 24 24 24 24 23 22 21 19 17 16
16 16 16 16 18 22 23 22 22 22 26 25 32 33 31 30 34 33 33 31 29 27 28 28 29 29 29 30 30 31 30 29 28 28 28 28 25 25 24 22 22 21 19
19 18 18 17 18 19 21 21 21 25 24 26 27 31 31 31 28 27 22 24 27 29 30 31 31 32 32 32 32 31 33 34 32 31 30 29 27 28 27 28 28 25 22
22 21 20 19 19 19 21 22 22 22 23 23 27 28 29 28 29 27 26 27 27 29 32 34 34 35 36 35 35 35 35 34 36 35 34 34 33 30 29 29 31 25 24
22 21 22 21 20 19 19 20 20 23 23 22 24 24 23 23 23 24 24 25 27 28 30 29 31 32 34 34 34 33 36 34 36 36 36 36 32 31 29 26 25 26 23
29 27 25 22 21 21 21 20 20 19 24 24 24 22 22 23 23 24 25 27 26 26 28 28 32 32 30 30 32 33 35 35 35 36 36 36 33 32 28 24 23 22 21
38 33 30 27 25 22 22 23 23 24 21 22 24 23 23 24 23 24 26 26 26 25 26 28 29 32 30 25 29 31 33 34 39 37 36 32 29 28 28 27 24 23 23
34 42 39 35 32 29 27 26 26 25 24 23 24 26 23 22 22 23 25 23 24 24 24 28 29 28 27 28 31 31 28 29 29 33 33 30 27 25 25 24 27 24 23
49 54 43 42 38 36 34 32 29 29 28 25 26 26 28 28 24 21 22 22 23 21 22 24 26 23 22 25 26 27 28 27 27 29 32 31 29 31 27 28 28 27 25
51 49 43 41 40 40 39 38 37 35 33 33 32 33 32 32 31 25 22 23 23 23 21 23 25 22 22 24 24 23 24 24 22 25 30 34 32 33 32 29 29 27 26
53 54 50 48 42 42 37 39 41 42 41 38 40 37 39 39 37 36 28 25 22 21 22 25 27 25 25 24 24 23 22 20 22 22 27 28 27 32 31 28 29 27 25
53 51 53 50 48 43 39 37 40 42 42 41 40 42 41 43 43 42 39 32 26 23 26 27 28 27 26 25 25 23 22 23 21 22 26 21 31 27 30 25 26 24 24
53 54 57 52 53 48 49 46 43 47 47 47 46 45 48 47 46 50 45 40 35 32 28 29 31 29 29 27 28 25 25 24 25 19 19 19 21 25 25 29 29 26 24
57 62 59 60 54 57 56 52 55 54 56 54 53 47 48 52 53 54 54 46 46 39 33 30 33 32 34 30 30 29 28 27 26 24 21 18 16 17 17 19 22 23 24
58 58 61 62 62 61 57 54 61 64 60 62 62 61 59 58 60 60 50 52 47 50 44 33 33 34 36 35 33 30 28 27 28 27 28 26 23 21 20 21 22 23 24
56 61 62 62 63 66 63 68 66 65 63 58 64 61 62 62 63 63 61 48 48 51 53 40 35 35 38 36 34 33 32 29 28 26 26 27 27 25 23 26 27 26 25
40 33 34 32 40 43 53 58 48 42 40 47 60 60 58 61 67 50 49 38 49 45 55 48 37 39 39 37 34 34 35 32 30 28 27 23 25 23 21 23 27 27 25
14 16 17 13 18 26 41 39 36 33 31 29 34 39 46 52 50 51 52 40 37 40 49 46 42 43 43 41 37 36 37 37 34 31 28 27 26 26 23 21 25 26 26
Wind_Direction
194 184 177 172 183 204 171 178 182 182 184 192 192 191 192 197 200 205 210 215 217 216 213 217 227 229 230 245 267 289 307 321 332 341 346 350 354 357 358 360 356 352 321
204 196 183 194 196 206 200 181 192 189 191 197 199 201 203 205 208 204 209 215 224 229 229 227 233 244 249 254 268 281 287 298 312 321 327 330 338 338 336 327 325 330 338
198 206 212 219 216 208 209 207 199 206 201 202 203 208 210 213 216 218 220 223 219 229 242 245 243 242 250 255 260 270 279 286 295 303 310 316 325 327 326 315 298 291 311
215 211 210 212 218 218 217 218 219 213 212 212 211 213 215 220 223 225 226 228 235 235 238 242 245 248 251 256 260 264 272 277 285 290 292 309 311 317 326 329 6 303 289
224 222 219 216 222 223 226 225 228 222 215 221 218 218 218 220 224 226 227 227 233 239 243 248 252 254 254 253 255 260 264 275 279 286 299 308 304 310 318 324 319 326 343
228 228 227 223 221 226 229 225 223 222 222 223 224 223 222 222 222 229 231 234 232 234 239 244 247 250 253 258 259 259 263 267 272 278 287 288 296 303 307 310 310 316 313
233 235 234 234 232 231 226 231 222 221 223 223 224 225 225 227 228 233 237 239 239 241 244 246 246 250 254 260 264 265 266 269 269 271 277 282 289 294 298 305 306 306 308
238 235 234 236 238 232 223 219 218 218 221 223 226 228 230 231 235 239 243 247 248 247 249 252 253 253 255 257 261 264 264 265 268 269 270 276 283 287 290 291 300 302 305
233 234 234 230 234 238 234 230 219 218 227 228 228 228 236 242 240 245 250 248 251 253 252 254 257 258 257 259 260 261 262 263 263 265 268 271 277 281 280 282 287 292 289
238 239 239 238 231 234 239 238 237 232 231 231 231 233 235 241 248 252 250 249 251 256 258 257 257 258 258 258 258 259 260 261 263 266 268 271 275 277 277 271 276 282 279
238 240 241 240 239 236 236 242 240 237 238 232 226 229 235 242 245 253 251 247 254 259 262 263 262 262 262 261 262 262 265 265 263 264 267 268 270 273 273 272 266 272 272
236 239 241 242 240 241 242 238 240 239 239 238 233 231 231 238 245 249 254 255 257 259 260 262 263 263 262 263 266 270 271 268 266 266 264 266 269 270 275 277 280 268 269
237 239 240 242 246 247 252 252 249 250 244 236 234 237 243 243 250 252 254 257 262 269 277 276 272 267 267 265 267 267 267 268 267 265 264 266 269 269 272 275 274 268 273
235 237 240 242 243 247 246 250 253 250 255 248 242 239 238 241 247 251 255 259 266 274 280 280 278 275 271 267 271 269 264 263 266 266 261 262 266 270 264 271 275 267 260
232 239 242 242 245 244 250 247 250 254 254 259 264 255 250 245 252 255 261 267 273 273 276 278 277 279 277 270 271 270 268 267 268 265 259 261 263 264 262 266 269 264 261
241 237 237 242 239 241 246 252 254 256 261 267 266 268 262 254 254 254 262 261 268 270 276 282 281 280 281 277 274 273 274 272 271 264 254 256 255 257 266 268 266 258 274
241 237 233 237 241 243 245 248 253 262 264 266 269 269 270 270 266 267 266 263 264 267 273 279 281 282 283 277 278 283 281 278 271 265 254 251 249 255 262 259 269 264 264
240 251 238 244 243 245 244 248 252 251 257 262 266 273 276 276 273 269 264 262 262 266 272 276 281 283 282 283 286 291 296 284 272 263 257 253 255 257 262 263 263 261 263
241 242 247 250 259 251 248 252 251 252 253 255 259 262 270 275 276 277 268 264 264 267 270 270 273 276 278 282 282 289 296 296 269 269 267 258 259 256 261 256 258 259 260
241 245 245 245 251 254 250 251 253 248 250 255 259 261 263 267 272 272 270 265 266 266 266 269 270 272 274 276 277 278 283 292 294 268 259 261 256 262 256 256 259 260 262
239 243 245 248 250 247 248 254 254 251 253 254 253 259 264 265 268 270 268 268 263 263 262 265 268 269 271 269 272 277 275 275 285 291 277 267 266 260 259 256 261 259 260
234 237 242 245 244 247 250 253 255 255 253 254 258 253 260 266 269 266 270 268 271 273 258 257 263 265 268 268 269 273 279 276 272 275 277 278 281 282 275 271 268 266 265
240 245 245 243 246 250 251 252 256 257 254 254 250 251 256 261 266 267 276 270 268 276 267 247 254 259 261 265 267 271 274 275 273 271 271 271 271 272 272 267 266 269 270
238 241 245 247 246 247 248 252 254 255 264 254 242 248 253 257 266 264 274 272 275 275 270 259 248 256 261 263 264 264 266 268 271 271 270 272 269 268 272 271 266 263 265
219 220 229 237 239 235 229 242 257 259 260 251 242 245 253 262 258 265 263 266 275 275 268 273 249 251 258 259 261 262 264 261 263 266 267 268 273 270 277 273 266 263 260
211 221 234 228 223 222 227 243 256 263 253 246 251 251 258 257 258 252 260 259 261 267 268 269 255 251 253 257 258 257 260 258 258 261 266 267 268 269 266 263 262 262 262
Height
5901 5904 5907 5910 5912 5913 5914 5918 5920 5922 5924 5927 5929 5931 5933 5934 5935 5937 5939 5940 5942 5943 5944 5945 5946 5947 5947 5947 5948 5948 5947 5946 5945 5944 5943 5941 5940 5938 5936 5935 5933 5931 5930
5901 5903 5906 5909 5912 5913 5914 5916 5919 5921 5923 5925 5927 5929 5931 5933 5934 5935 5937 5938 5940 5941 5943 5944 5944 5945 5945 5946 5947 5947 5946 5945 5944 5943 5942 5940 5939 5937 5935 5934 5933 5931 5929
5900 5902 5905 5908 5910 5913 5914 5916 5918 5920 5921 5923 5924 5926 5929 5931 5932 5933 5935 5936 5938 5939 5940 5941 5942 5942 5943 5943 5944 5944 5944 5944 5943 5942 5941 5939 5937 5936 5934 5932 5930 5930 5928
5898 5900 5902 5905 5908 5910 5912 5914 5916 5918 5919 5921 5922 5924 5926 5928 5929 5931 5932 5934 5935 5935 5936 5937 5938 5939 5940 5940 5940 5940 5941 5942 5941 5940 5938 5937 5936 5934 5932 5931 5928 5928 5927
5894 5896 5898 5901 5904 5907 5909 5911 5913 5915 5917 5919 5920 5922 5923 5925 5926 5927 5928 5930 5931 5932 5933 5934 5935 5936 5936 5937 5937 5937 5937 5937 5938 5938 5936 5935 5934 5933 5932 5930 5928 5927 5925
5892 5894 5895 5897 5898 5901 5904 5907 5909 5912 5914 5916 5918 5919 5920 5921 5923 5924 5925 5926 5927 5928 5929 5930 5931 5931 5932 5933 5933 5933 5934 5934 5934 5935 5934 5934 5932 5932 5930 5929 5928 5926 5925
5890 5891 5893 5895 5895 5897 5899 5901 5904 5908 5910 5913 5914 5915 5916 5918 5920 5921 5921 5922 5923 5924 5925 5926 5927 5927 5927 5928 5929 5929 5929 5930 5930 5931 5931 5930 5929 5929 5928 5926 5925 5923 5920
5887 5888 5889 5891 5893 5893 5895 5896 5898 5902 5905 5908 5910 5912 5913 5915 5915 5916 5917 5918 5919 5920 5920 5921 5923 5923 5923 5923 5924 5924 5925 5925 5925 5925 5926 5926 5925 5925 5924 5923 5922 5921 5920
5884 5885 5886 5885 5888 5890 5892 5894 5894 5897 5899 5902 5904 5907 5910 5910 5910 5910 5911 5912 5914 5915 5916 5916 5918 5918 5919 5919 5919 5918 5919 5920 5920 5920 5920 5920 5920 5920 5920 5919 5918 5918 5917
5879 5880 5882 5883 5883 5885 5888 5890 5891 5892 5893 5895 5898 5901 5903 5904 5904 5904 5906 5907 5908 5910 5910 5911 5911 5912 5913 5913 5913 5912 5912 5913 5914 5914 5915 5915 5915 5914 5914 5914 5913 5913 5912
5874 5876 5877 5880 5881 5881 5882 5885 5887 5888 5888 5890 5891 5894 5896 5898 5899 5900 5901 5902 5904 5904 5905 5905 5905 5906 5906 5906 5907 5908 5908 5907 5908 5909 5909 5908 5909 5908 5908 5907 5906 5907 5907
5870 5871 5873 5875 5878 5879 5880 5881 5882 5884 5884 5885 5886 5887 5889 5892 5893 5895 5895 5896 5898 5899 5899 5899 5899 5898 5899 5900 5901 5901 5902 5901 5900 5901 5902 5901 5902 5903 5902 5901 5900 5901 5902
5866 5867 5868 5870 5873 5875 5877 5878 5880 5882 5882 5881 5881 5883 5885 5887 5887 5889 5890 5891 5892 5893 5893 5894 5893 5892 5892 5892 5892 5893 5892 5892 5891 5892 5893 5895 5895 5896 5895 5895 5894 5895 5896
5861 5863 5865 5866 5868 5870 5871 5873 5875 5877 5880 5882 5880 5879 5880 5881 5882 5884 5885 5886 5888 5888 5886 5885 5884 5884 5884 5885 5884 5884 5883 5884 5884 5884 5885 5887 5888 5889 5889 5890 5890 5890 5890
5854 5857 5861 5862 5864 5867 5868 5868 5869 5873 5875 5877 5881 5879 5878 5877 5877 5878 5879 5880 5881 5882 5880 5879 5878 5876 5876 5877 5876 5876 5875 5876 5875 5875 5877 5880 5881 5882 5883 5884 5884 5884 5885
5840 5848 5851 5855 5858 5862 5864 5866 5866 5866 5871 5871 5874 5878 5877 5874 5873 5874 5873 5874 5875 5875 5875 5872 5871 5870 5871 5870 5870 5869 5868 5867 5866 5866 5868 5871 5874 5875 5877 5878 5878 5878 5879
5830 5831 5840 5844 5850 5856 5858 5859 5862 5864 5865 5867 5869 5871 5873 5873 5871 5870 5869 5869 5869 5869 5870 5868 5865 5866 5866 5865 5865 5864 5862 5860 5859 5859 5860 5863 5866 5868 5870 5871 5871 5872 5873
5821 5824 5833 5837 5839 5847 5850 5853 5855 5855 5858 5860 5861 5864 5867 5869 5870 5866 5864 5863 5863 5863 5864 5864 5862 5861 5861 5860 5860 5858 5857 5855 5854 5853 5853 5856 5858 5861 5862 5863 5864 5865 5866
5811 5817 5821 5829 5830 5837 5840 5844 5846 5847 5849 5852 5854 5855 5858 5860 5863 5863 5860 5858 5857 5857 5858 5859 5857 5857 5856 5855 5855 5854 5852 5850 5849 5849 5848 5850 5851 5852 5855 5856 5857 5858 5859
5802 5808 5813 5817 5821 5823 5829 5832 5836 5838 5839 5841 5844 5846 5847 5850 5853 5855 5855 5852 5851 5851 5852 5853 5853 5853 5851 5850 5849 5848 5847 5846 5844 5843 5843 5844 5845 5846 5849 5850 5851 5851 5852
5792 5797 5800 5804 5807 5811 5816 5818 5824 5826 5829 5831 5831 5835 5837 5839 5841 5843 5844 5845 5843 5844 5845 5846 5848 5847 5846 5845 5844 5843 5842 5841 5840 5840 5839 5838 5838 5839 5842 5844 5844 5845 5846
5779 5782 5786 5791 5794 5799 5803 5806 5810 5812 5816 5820 5822 5823 5826 5828 5829 5831 5829 5835 5835 5835 5836 5838 5839 5840 5839 5840 5839 5837 5837 5837 5836 5837 5836 5836 5835 5836 5837 5838 5838 5840 5840
5767 5771 5774 5778 5782 5786 5789 5793 5796 5799 5803 5806 5809 5810 5812 5816 5817 5818 5820 5821 5825 5824 5824 5828 5831 5831 5831 5831 5833 5833 5831 5831 5830 5832 5832 5831 5832 5831 5831 5831 5831 5833 5834
5759 5760 5763 5766 5769 5772 5780 5783 5784 5785 5787 5787 5792 5796 5800 5804 5808 5807 5809 5808 5812 5813 5813 5816 5819 5821 5823 5823 5824 5825 5824 5824 5824 5824 5825 5826 5826 5825 5826 5826 5825 5825 5826
5747 5751 5754 5754 5756 5759 5767 5772 5776 5774 5772 5775 5780 5784 5790 5794 5796 5797 5799 5797 5800 5800 5802 5804 5807 5810 5813 5815 5816 5816 5816 5816 5817 5817 5818 5819 5818 5819 5819 5818 5818 5818 5819
5743 5745 5746 5748 5751 5755 5760 5766 5768 5763 5762 5765 5771 5775 5779 5785 5784 5785 5786 5786 5790 5790 5790 5797 5798 5800 5803 5805 5806 5807 5806 5808 5809 5810 5811 5813 5811 5812 5811 5811 5810 5812 5813